CW5346 Weather Reports


Display with metric or nautical units.
time (UTC)temp
F
wind
direction
speed
MPH
gust
MPH
rain 1hr
in
rain 24hr
in
rain mn
in
humidity
%
barometer
mb
20260903051603 66 296 0.0 0.0 0.04 0.39 0.14 98 1017.4
20260903050603 66 296 0.0 0.0 0.02 0.37 0.12 98 1017.3
20260903045603 66 296 0.0 0.0 0.09 0.34 0.09 98 1018.1
20260903044602 66 296 0.0 4.0 0.07 0.32 0.07 98 1018.6
20260903043603 66 296 0.0 3.0 0.05 0.30 0.05 98 1018.7
20260903042603 66 296 0.0 0.0 0.02 0.27 0.02 98 1019.7
20260903041603 66 296 0.0 0.0 0.01 0.26 0.01 98 1018.8
20260903040602 66 296 0.0 0.0 0.00 0.25 0.00 98 1018.9
20260903035603 66 296 0.0 0.0 0.00 0.25 0.25 98 1018.9
20260903034603 66 296 0.0 0.0 0.00 0.25 0.25 98 1018.7
20260903033646 66 296 0.0 0.0 0.00 0.25 0.25 98 1018.5
20260903032604 66 296 0.0 0.0 0.00 0.25 0.25 99 1018.5
20260903031603 66 296 0.0 0.0 0.00 0.25 0.25 98 1018.8
20260903030603 66 296 0.0 0.0 0.00 0.25 0.25 98 1018.6
20260903025602 66 296 0.0 0.0 0.00 0.25 0.25 98 1018.5
20260903024625 66 296 0.0 0.0 0.00 0.25 0.25 98 1018.7
20260903023603 66 296 0.0 0.0 0.00 0.25 0.25 98 1018.6
20260903022603 66 296 0.0 0.0 0.00 0.25 0.25 98 1018.7
20260903021603 66 296 0.0 0.0 0.00 0.25 0.25 98 1018.7
20260903020603 66 296 0.0 0.0 0.00 0.25 0.25 98 1019.0
20260903015604 66 296 0.0 0.0 0.00 0.25 0.25 98 1019.0
20260903014603 66 296 0.0 0.0 0.00 0.25 0.25 98 1018.9
20260903013603 66 296 0.0 0.0 0.00 0.25 0.25 98 1018.9
20260903012602 66 296 0.0 0.0 0.00 0.25 0.25 98 1019.1
20260903011603 66 296 0.0 0.0 0.00 0.25 0.25 98 1019.1
20260903010624 66 296 0.0 0.0 0.00 0.25 0.25 98 1019.2
20260903005603 66 296 0.0 0.0 0.00 0.25 0.25 98 1019.6
20260903004603 66 296 0.0 0.0 0.00 0.25 0.25 98 1019.4
20260903003603 66 296 0.0 0.0 0.00 0.25 0.25 98 1019.4
20260903002624 66 296 0.0 0.0 0.00 0.25 0.25 98 1019.5
20260903001603 66 296 0.0 0.0 0.00 0.25 0.25 98 1019.4
20260903000603 66 296 0.0 0.0 0.00 0.25 0.25 98 1019.2
20260902235602 66 296 0.0 0.0 0.00 0.25 0.25 98 1018.9
20260902234624 66 296 0.0 0.0 0.00 0.25 0.25 98 1018.6
20260902233603 66 296 0.0 0.0 0.00 0.25 0.25 98 1018.7
20260902232603 66 296 0.0 0.0 0.00 0.25 0.25 98 1018.8
20260902231603 66 296 0.0 0.0 0.00 0.25 0.25 98 1018.9
20260902230603 66 296 0.0 0.0 0.00 0.25 0.25 98 1019.0
20260902225603 66 296 0.0 0.0 0.00 0.25 0.25 98 1018.9
20260902224603 66 296 0.0 0.0 0.00 0.25 0.25 98 1019.1
20260902223603 66 296 0.0 0.0 0.00 0.26 0.25 98 1019.2
20260902222603 67 296 0.0 0.0 0.00 0.33 0.25 98 1019.4
20260902220604 67 296 0.0 2.0 0.00 0.33 0.25 98 1019.4
20260902215604 67 296 0.0 0.0 0.00 0.33 0.25 98 1019.4
20260902214604 67 296 0.0 0.0 0.00 0.33 0.25 98 1019.8
20260902213604 67 296 0.0 0.0 0.00 0.33 0.25 98 1019.8
20260902212625 67 296 0.0 0.0 0.00 0.33 0.25 98 1019.7
20260902211603 67 296 0.0 0.0 0.00 0.33 0.25 98 1019.6
20260902210604 67 296 0.0 0.0 0.00 0.34 0.25 98 1019.7
20260902205604 67 296 0.0 0.0 0.00 0.34 0.25 98 1019.6
20260902204604 67 296 0.0 0.0 0.00 0.34 0.25 98 1019.8
20260902203604 67 296 0.0 1.0 0.00 0.38 0.25 98 1019.8
20260902202603 67 296 0.0 0.0 0.00 0.41 0.25 98 1019.5
20260902201625 67 296 0.0 2.0 0.00 0.41 0.25 98 1019.3
20260902200604 67 296 0.0 0.0 0.00 0.41 0.25 98 1019.5
20260902195604 67 296 0.0 0.0 0.04 0.41 0.25 98 1019.4
20260902194603 67 296 0.0 0.0 0.04 0.41 0.25 98 1019.5
20260902193625 67 296 0.0 0.0 0.04 0.41 0.25 98 1019.8
20260902192604 67 296 0.0 0.0 0.04 0.41 0.25 98 1019.9
20260902191604 66 296 0.0 0.0 0.04 0.41 0.25 98 1020.1
20260902190603 66 296 0.0 0.0 0.04 0.41 0.25 98 1020.3
20260902185604 66 296 0.0 0.0 0.19 0.37 0.21 98 1020.5
20260902184604 66 296 0.0 0.0 0.17 0.35 0.19 98 1020.7
20260902183625 66 296 0.0 2.0 0.07 0.25 0.09 98 1020.9
20260902182604 66 296 0.0 0.0 0.00 0.18 0.02 98 1020.7
20260902181604 66 296 0.0 0.0 0.00 0.18 0.02 98 1020.6
20260902180626 66 296 0.0 0.0 0.00 0.18 0.02 98 1020.5
20260902175604 66 296 0.0 0.0 0.00 0.18 0.02 98 1020.5
20260902174625 66 296 0.0 0.0 0.00 0.18 0.02 98 1020.3
20260902173603 66 296 0.0 0.0 0.00 0.18 0.02 98 1020.3
20260902172625 66 296 0.0 0.0 0.00 0.18 0.02 98 1020.4
20260902171603 65 296 0.0 0.0 0.00 0.18 0.02 98 1020.4
20260902170604 65 296 0.0 0.0 0.00 0.18 0.02 98 1020.5
20260902165646 65 296 0.0 0.0 0.00 0.19 0.02 98 1020.3
20260902164604 65 296 0.0 0.0 0.00 0.20 0.02 98 1020.5
20260902162625 65 296 0.0 0.0 0.00 0.20 0.02 98 1020.8
20260902161604 65 296 0.0 0.0 0.00 0.20 0.02 98 1021.0
20260902160604 65 296 0.0 0.0 0.00 0.20 0.02 98 1020.8
20260902155603 64 296 0.0 0.0 0.00 0.20 0.02 98 1020.7
20260902154604 64 296 0.0 0.0 0.00 0.20 0.02 98 1020.6
20260902153604 64 296 0.0 0.0 0.00 0.20 0.02 98 1020.9
20260902152603 64 296 0.0 0.0 0.00 0.20 0.02 99 1020.8
20260902151604 64 296 0.0 0.0 0.00 0.20 0.02 98 1020.9
20260902150603 64 296 0.0 0.0 0.00 0.22 0.02 98 1020.9
20260902145604 64 296 0.0 2.0 0.00 0.24 0.02 98 1020.9
20260902144603 64 296 0.0 0.0 0.00 0.26 0.02 98 1020.9
20260902143604 64 296 0.0 0.0 0.00 0.27 0.02 98 1020.8
20260902142625 64 296 0.0 0.0 0.00 0.28 0.02 98 1020.9
20260902141603 64 296 0.0 0.0 0.00 0.29 0.02 98 1020.9
20260902140603 64 295 0.0 1.0 0.00 0.30 0.02 98 1020.9
20260902135603 64 296 0.0 0.0 0.00 0.30 0.02 99 1021.0
20260902134604 64 296 0.0 0.0 0.00 0.30 0.02 98 1021.0
20260902133604 63 296 0.0 0.0 0.00 0.30 0.02 98 1020.8
20260902132603 63 296 0.0 0.0 0.00 0.30 0.02 98 1020.7
20260902131604 64 296 0.0 3.0 0.00 0.30 0.02 98 1020.5
20260902130603 64 295 0.0 3.0 0.00 0.30 0.02 98 1020.5
20260902125604 64 296 0.0 0.0 0.00 0.30 0.02 98 1020.5
20260902124604 64 296 0.0 8.0 0.00 0.30 0.02 98 1020.5
20260902123603 64 286 0.0 0.0 0.00 0.30 0.02 98 1020.5
20260902122604 64 286 0.0 0.0 0.00 0.30 0.02 98 1020.3
20260902121603 64 286 0.0 3.0 0.00 0.30 0.02 98 1020.2
20260902120625 64 284 0.0 1.0 0.00 0.30 0.02 98 1020.0
20260902115603 64 284 0.0 0.0 0.00 0.30 0.02 98 1020.1
20260902114604 64 284 0.0 0.0 0.00 0.30 0.02 98 1020.2
20260902113604 64 284 0.0 0.0 0.00 0.30 0.02 98 1020.3
20260902112603 64 284 0.0 0.0 0.00 0.30 0.02 98 1020.2
20260902111604 64 283 0.0 2.0 0.00 0.31 0.02 98 1020.1
20260902110624 64 284 0.0 0.0 0.00 0.32 0.02 98 1020.0
20260902105604 64 284 0.0 2.0 0.00 0.32 0.02 98 1019.9
20260902104604 64 284 0.0 0.0 0.00 0.33 0.02 98 1020.0
20260902103603 64 284 0.0 0.0 0.00 0.33 0.02 98 1020.0
20260902102604 64 284 0.0 0.0 0.00 0.33 0.02 98 1020.0
20260902101604 64 284 0.0 0.0 0.00 0.33 0.02 98 1019.8
20260902100603 64 284 0.0 0.0 0.00 0.33 0.02 98 1019.9
20260902095604 64 284 0.0 0.0 0.01 0.33 0.02 98 1019.7
20260902094604 64 284 0.0 0.0 0.01 0.33 0.02 98 1019.5
20260902093624 64 284 0.0 0.0 0.01 0.33 0.02 98 1019.4
20260902092604 64 284 0.0 0.0 0.00 0.32 0.01 98 1019.3
20260902091603 64 284 0.0 0.0 0.00 0.32 0.01 98 1019.3
20260902090604 64 284 0.0 0.0 0.00 0.32 0.01 98 1019.3
20260902085604 64 284 0.0 0.0 0.00 0.32 0.01 98 1019.3
20260902084603 64 284 0.0 0.0 0.00 0.32 0.01 98 1019.1
20260902083604 64 284 0.0 0.0 0.00 0.32 0.01 98 1019.2
20260902082603 64 284 0.0 0.0 0.00 0.32 0.01 98 1019.0
20260902081604 64 284 0.0 0.0 0.00 0.32 0.01 98 1019.0
20260902080603 64 284 0.0 0.0 0.00 0.32 0.01 98 1018.8
20260902074625 64 284 0.0 0.0 0.00 0.32 0.01 98 1018.7
20260902073604 64 284 0.0 0.0 0.00 0.32 0.01 98 1018.7
20260902072625 64 284 0.0 0.0 0.00 0.32 0.01 98 1018.7
20260902071603 65 284 0.0 0.0 0.00 0.32 0.01 98 1018.3
20260902070624 65 284 0.0 0.0 0.00 0.32 0.01 98 1018.1
20260902065604 65 284 0.0 0.0 0.01 0.32 0.01 98 1018.3
20260902064603 65 284 0.0 0.0 0.01 0.32 0.01 98 1018.4
20260902063625 65 284 0.0 0.0 0.01 0.32 0.01 98 1018.6
20260902062604 65 284 0.0 0.0 0.01 0.32 0.01 98 1018.8
20260902061603 65 284 0.0 0.0 0.01 0.32 0.01 98 1018.7
20260902060604 65 284 0.0 0.0 0.00 0.31 0.00 98 1018.9
20260902055603 65 284 0.0 0.0 0.00 0.31 0.00 98 1018.7
20260902054604 65 284 0.0 0.0 0.00 0.31 0.00 98 1018.8
20260902053603 65 284 0.0 0.0 0.00 0.31 0.00 98 1018.8
20260902052624 65 284 0.0 0.0 0.00 0.31 0.00 98 1018.9